Glens Falls, NY

6:28 PM EDT on June 22, 2017 (GMT -0400)
Bennett Memorial

Weather History for KGFL - November, 2012

Change the Weather History Date:

Monday, November 12, 2012

  Actual Average Record
Temperature  
Mean Temperature 52 °F 38 °F  
Max Temperature 68 °F 48 °F 68 °F (2012)
Min Temperature 36 °F 29 °F 13 °F (1976)
Degree Days  
Heating Degree Days 13 27  
Month to date heating degree days 304 300  
Since 1 July heating degree days 954 1155  
Cooling Degree Days 0 0  
Month to date cooling degree days 0 0  
Year to date cooling degree days 533 352  
Growing Degree Days 2 (Base 50)    
Moisture  
Dew Point 45 °F    
Average Humidity 72    
Maximum Humidity 100    
Minimum Humidity 44    
Precipitation  
Precipitation 0.00 in 0.10 in 0.78 in (1995)
Month to date precipitation 0.03 1.31  
Year to date precipitation 30.94 34.01  
Sea Level Pressure  
Sea Level Pressure 30.26 in    
Wind  
Wind Speed 9 mph (SSW)    
Max Wind Speed 26 mph    
Max Gust Speed 38 mph    
Visibility 9 miles    
Events      
T = Trace of Precipitation, MM = Missing Value Source: NWS Daily Summary

Daily Weather History Graph

Daily Weather History Graph

Search for Another Location

Airport or City:

Trip Planner

Search our weather history database for the weather conditions in past years. The results will help you decide how hot, cold, wet, or windy it might be!

Date:

Astronomy

Nov. 12, 2012 Rise Set
Actual Time 6:44 AM EST 4:32 PM EST
Civil Twilight 6:13 AM EST 5:02 PM EST
Nautical Twilight 5:39 AM EST 5:37 PM EST
Astronomical Twilight 5:05 AM EST 6:10 PM EST
Moon 5:05 AM EST (11/12) 3:36 PM EST (11/12)
Length of Visible Light 10h 49m
Length of Day
9h 47m
Waning Crescent, 2% of the Moon is Illuminated
Nov 12
Waning Crescent
Nov 13
New
Nov 20
First Quarter
Nov 28
Full
Dec 6
Last Quarter

Hourly Weather History & Observations

Time (EST) Temp. Windchill Dew Point Humidity Pressure Visibility Wind Dir Wind Speed Gust Speed Precip Events Conditions
12:53 AM 37.9 °F - 36.0 °F 93% 30.39 in 9.0 mi Calm Calm - N/A   Clear
1:53 AM 37.9 °F - 36.0 °F 93% 30.39 in 8.0 mi Calm Calm - N/A   Clear
2:53 AM 37.9 °F - 36.0 °F 93% 30.38 in 9.0 mi Calm Calm - N/A   Clear
3:53 AM 37.9 °F - 36.0 °F 93% 30.38 in 8.0 mi Calm Calm - N/A   Clear
4:53 AM 39.0 °F 36.8 °F 37.9 °F 96% 30.38 in 8.0 mi West 3.5 mph - N/A   Clear
5:53 AM 42.1 °F 38.4 °F 41.0 °F 96% 30.38 in 8.0 mi WSW 5.8 mph - N/A   Clear
6:48 AM 39.2 °F - 39.2 °F 100% 30.36 in 1.8 mi Calm Calm - N/A   Clear
6:49 AM 39.0 °F - 39.0 °F 100% 30.38 in 1.5 mi Calm Calm - N/A   Clear
7:39 AM 39.2 °F - 39.2 °F 100% 30.36 in 2.0 mi Calm Calm - N/A   Clear
7:53 AM 43.0 °F - 41.0 °F 93% 30.38 in 4.0 mi Calm Calm - N/A   Clear
8:53 AM 54.0 °F - 44.1 °F 69% 30.37 in 10.0 mi SSW 8.1 mph - N/A   Clear
9:53 AM 57.9 °F - 42.1 °F 56% 30.35 in 10.0 mi SSW 9.2 mph - N/A   Clear
10:53 AM 60.1 °F - 42.1 °F 51% 30.33 in 10.0 mi SW 10.4 mph - N/A   Clear
11:53 AM 64.9 °F - 43.0 °F 45% 30.29 in 10.0 mi SW 6.9 mph - N/A   Clear
12:53 PM 66.9 °F - 45.0 °F 45% 30.27 in 10.0 mi SSW 11.5 mph 23.0 mph N/A   Clear
1:53 PM 68.0 °F - 46.9 °F 47% 30.25 in 10.0 mi South 15.0 mph 21.9 mph N/A   Clear
2:53 PM 66.9 °F - 46.9 °F 49% 30.23 in 10.0 mi SSW 10.4 mph 19.6 mph N/A   Clear
3:53 PM 64.0 °F - 46.0 °F 52% 30.22 in 10.0 mi South 16.1 mph 25.3 mph N/A   Clear
4:53 PM 62.1 °F - 45.0 °F 53% 30.21 in 10.0 mi South 17.3 mph 26.5 mph N/A   Clear
5:53 PM 61.0 °F - 48.0 °F 62% 30.20 in 10.0 mi South 9.2 mph 20.7 mph N/A   Clear
6:53 PM 60.1 °F - 48.9 °F 67% 30.17 in 10.0 mi South 10.4 mph 18.4 mph N/A   Clear
7:53 PM 61.0 °F - 51.1 °F 70% 30.15 in 10.0 mi South 15.0 mph 24.2 mph N/A   Mostly Cloudy
8:40 PM 62.6 °F - 51.8 °F 68% 30.12 in 10.0 mi SSW 16.1 mph 31.1 mph N/A   Mostly Cloudy
8:53 PM 62.1 °F - 52.0 °F 70% 30.14 in 10.0 mi SSW 15.0 mph 26.5 mph N/A   Scattered Clouds
9:32 PM 62.6 °F - 51.8 °F 68% 30.11 in 10.0 mi South 15.0 mph 26.5 mph N/A   Mostly Cloudy
9:41 PM 62.6 °F - 53.6 °F 72% 30.11 in 10.0 mi South 18.4 mph 28.8 mph N/A   Scattered Clouds
9:53 PM 62.1 °F - 53.1 °F 72% 30.11 in 10.0 mi South 19.6 mph 27.6 mph N/A   Mostly Cloudy
10:53 PM 62.1 °F - 53.1 °F 72% 30.07 in 10.0 mi South 23.0 mph 33.4 mph N/A   Scattered Clouds
11:53 PM 63.0 °F - 54.0 °F 72% 30.05 in 10.0 mi South 18.4 mph 33.4 mph N/A   Overcast